Location: Winthrop
(48.4780°N, 120.1850°W)
Time: 17:57:23
(UTC-07:00)

Explorer 7 - Pass Details

Date: 06 February 2023
Orbit: 478 x 657 km, 50.3° (Epoch: 30 March)

Event Time Altitude Azimuth Distance (km) Brightness Sun altitude
Rises 09:38:24 0° 194° (SSW) 2,590 10.8 17.2°
Reaches altitude 10° 09:41:16 10° 171° (S) 1,743 10.6 17.5°
Maximum altitude 09:43:35 15° 135° (SE) 1,475 11.8 17.7°
Drops below altitude 10° 09:46:03 10° 98° (E) 1,824 10.3 18.0°
Sets 09:49:04 0° 77° (ENE) 2,756 10.7 18.3°
